#timestamp,LO_Frequency,Hit,StdDev 
1623996015.1,286047001.2,N
1623996016.0,286047001.2,N
1623996035.8,286046999.4,N
1623996055.6,286047000.9,N
1623996075.5,286046998.2,N
1623996095.3,286046999.3,N
1623996115.1,286047001.1,N
1623996135.9,286047000.9,N
1623996155.7,286047002.5,N
1623996175.6,286047000.5,N
1623996195.4,286046999.0,N
1623996245.3,286046999.4,E
1623996255.2,286046998.2,N
1623996275.0,286046998.1,P
1623996275.9,286046998.1,P
1623996295.8,286047000.6,Y
1623996315.6,286047004.3,P
1623996335.4,286047002.5,N
1623996355.3,286046999.7,N
1623996375.1,286047002.6,N
1623996395.9,286047002.7,N
1623996415.7,286047003.7,N
1623996435.5,286047003.5,N
1623996455.4,286047004.1,N
1623996475.2,286047001.3,N
1623996495.0,286047001.4,N
1623996495.9,286047001.4,N
1623996515.8,286047003.9,N
1623996535.6,286047003.4,N
1623996555.5,286047002.2,N
1623996575.3,286047004.1,N
1623996595.1,286047002.6,N
1623996615.9,286047002.2,N
1623996635.7,286047002.7,N
1623996655.5,286047002.6,N
1623996675.4,286047001.9,N
1623996695.2,286047001.6,N
1623996715.1,286047004.2,N
1623996716.0,286047004.2,N
1623996735.8,286047003.9,N
1623996755.6,286047003.4,N
1623996775.5,286047001.5,N
1623996795.3,286047000.1,N
1623996815.1,286046999.7,N
1623996835.9,286047002.1,N
1623996855.7,286047003.6,N
1623996875.6,286047003.9,N
1623996895.4,286047004.2,Y
1623996915.2,286046998.7,P
1623996935.1,286046999.5,N
1623996936.0,286046999.5,N
1623996955.8,286046997.0,N
1623996975.7,286046999.6,N
1623996995.5,286046998.3,N
1623997015.3,286046998.8,N
1623997035.2,286047001.2,N
1623997055.0,286046999.9,N
1623997055.9,286046999.9,N
1623997075.7,286047000.8,N
1623997095.6,286047001.0,N
1623997115.4,286046998.9,N
1623997135.3,286046999.3,N
1623997155.1,286046998.3,N
1623997156.0,286046998.3,N
1623997175.8,286046998.8,N
1623997195.7,286046998.8,N
1623997215.5,286046998.7,N
1623997235.3,286046999.5,N
1623997255.2,286046999.5,N
1623997275.0,286046999.0,N
1623997275.9,286046999.0,N
1623997295.8,286046999.0,N
1623997315.6,286047001.1,N
1623997335.4,286047002.1,N
1623997355.3,286047002.3,N
1623997375.1,286047002.5,N
1623997395.8,286047002.4,N
1623997415.7,286047002.7,N
1623997435.5,286047000.3,N
1623997455.4,286046998.6,N
1623997475.2,286047001.2,N
1623997495.0,286047000.8,N
1623997495.9,286047000.8,N
1623997515.8,286046998.3,N
1623997535.6,286047001.2,N
1623997555.4,286047001.0,N
1623997575.3,286046998.4,N
1623997595.1,286046998.6,N
1623997615.9,286046996.5,N
1623997635.7,286046998.4,N
1623997655.5,286046998.9,N
1623997675.4,286046999.6,N
1623997695.2,286046997.0,N
1623997715.0,286046998.9,N
1623997715.9,286046998.9,N
1623997735.8,286046998.8,N
1623997755.6,286046999.4,N
1623997775.5,286046999.1,N
1623997795.3,286046999.3,N
1623997815.1,286046998.9,N
1623997835.9,286046998.9,N
1623997855.7,286046998.6,N
1623997875.5,286046999.4,N
1623997895.4,286046998.9,N
1623997915.2,286046999.4,N
1623997935.1,286046997.0,N
1623997936.0,286046997.0,N
1623997955.8,286046997.1,N
1623997975.6,286046999.2,N
1623997995.5,286046999.4,N
1623998015.3,286046998.9,N
1623998035.1,286046996.7,N
1623998055.9,286046996.8,N
1623998075.7,286046996.9,N
1623998095.6,286046997.9,N
1623998115.4,286046997.6,N
1623998135.2,286046997.8,N
1623998155.1,286046998.0,N
1623998156.0,286046998.0,N
1623998175.8,286046995.0,Y
1623998195.7,286046999.1,P
1623998215.5,286046995.0,P
1623998235.3,286046995.3,N
1623998255.2,286046997.5,N
1623998275.0,286046995.2,N
1623998275.9,286046995.2,N
1623998295.8,286046993.3,Y
1623998315.6,286046998.5,P
1623998335.4,286046998.7,N
1623998355.3,286047001.2,N
1623998375.1,286046999.4,N
1623998395.8,286046998.4,N
1623998415.7,286047000.5,N
1623998435.5,286047000.9,N
1623998455.4,286046998.1,N
1623998475.2,286046999.2,N
1623998495.0,286046996.9,N
1623998495.9,286046996.9,N
1623998515.8,286046997.0,N
1623998535.6,286046996.7,N
1623998555.4,286046997.2,N
1623998575.3,286046994.9,Y
1623998595.1,286046998.7,P
1623998615.9,286046998.8,P
1623998635.7,286046998.3,P
1623998655.5,286046996.5,Y
1623998675.4,286046998.2,P
1623998695.2,286047001.2,P
1623998715.1,286046998.5,N
1623998716.0,286046998.5,N
1623998735.8,286046999.6,N
1623998755.6,286046997.0,N
1623998775.5,286046996.7,N
1623998795.3,286046996.9,N
1623998815.2,286046995.6,Y
1623998835.9,286046997.1,P
1623998855.7,286046997.1,P
1623998875.6,286046999.5,N
1623998895.4,286046994.9,Y
1623998915.2,286046999.5,P
1623998935.1,286046996.5,P
1623998936.0,286046996.5,N
1623998955.8,286046999.6,N
1623998975.7,286046999.0,N
1623998995.5,286046999.0,N
1623999015.3,286047000.6,N
1623999035.2,286047002.3,N
1623999055.0,286047004.2,N
1623999055.9,286047004.2,N
1623999075.8,286047004.0,N
1623999095.6,286047003.6,N
1623999115.4,286047004.2,N
1623999135.3,286047003.2,N
1623999155.1,286047004.1,N
1623999175.8,286047003.5,N
1623999195.7,286047003.1,N
1623999215.5,286047005.9,N
1623999235.4,286047003.1,N
1623999255.2,286047003.7,N
1623999275.0,286047003.4,N
1623999275.9,286047003.4,N
1623999295.8,286047003.2,N
1623999315.6,286047003.1,N
1623999335.4,286047005.8,N
1623999355.3,286047005.0,N
1623999375.1,286047004.7,N
1623999395.9,286047005.3,N
1623999415.7,286047005.0,N
1623999435.5,286047004.5,N
1623999455.4,286047004.9,N
1623999475.2,286047007.2,N
1623999495.0,286047007.4,Y
1623999495.9,286047007.4,P
1623999515.8,286047002.1,N
1623999535.6,286047004.2,N
1623999555.5,286047003.7,N
1623999575.3,286047001.7,N
1623999595.1,286047002.1,N
